Terminal Aerodrome Forecast
Issued by NWS Cleveland, OH

Home | Current Version | Previous Version | Graphics & Text | Print | Product List | Glossary On
Versions: 1 2 3 4 5 6 7 8 9 10 11 12 13 14 15 16 17
000
FTUS41 KCLE 090900 AAA
TAFMFD
TAF AMD
KMFD 090913Z 0909/1006 23005KT P6SM BKN070
     FM091400 28010KT P6SM BKN040
     FM092200 30008KT P6SM SCT040=

USA.gov is the U.S. government's official web portal to all federal, state and local government web resources and services.